Location: Unspecified
(38.0989°N, 0.6729°W)
Time: 14:59:40
(UTC+01:00)

N. Korean satellite - Visible Passes

Search period start: 24 March 2017 00:00
Search period end: 03 April 2017 01:00
Orbit: 461 x 520 km, 97.2° (Epoch: 22 March)

Date Brightness Start Highest point End Pass type
(mag) Time Alt. Az. Time Alt. Az. Time Alt. Az.
24 Mar 7.6 19:41:42 10° S 19:45:13 50° W 19:48:41 10° NNW visible
26 Mar 10.0 21:32:37 10° WSW 21:33:54 11° W 21:35:09 10° WNW visible
27 Mar 9.4 21:08:22 10° SSW 21:11:12 22° W 21:14:02 10° NW visible
28 Mar 7.9 20:45:09 10° S 20:48:35 44° W 20:51:58 10° NNW visible
30 Mar 10.4 21:37:04 10° W 21:37:14 10° W 21:37:24 10° W visible
31 Mar 9.5 21:11:53 10° SW 21:14:31 20° W 21:17:09 10° NW visible
01 Apr 8.2 20:48:32 10° S 20:51:52 39° W 20:55:10 10° NNW visible
